Location: Beverley
(50.2667°N, 107.9667°W)
Time: 04:18:14
(UTC+00:00)

ZACube-1 - Pass Details

Date: 30 June 2022
Orbit: 582 x 661 km, 97.6° (Epoch: 09 August)

Event Time Altitude Azimuth Distance (km) Brightness Sun altitude
Rises 09:58:13 0° 27° (NNE) 2,944 ? -8.2°
Reaches altitude 10° 10:01:08 10° 48° (NE) 2,044 ? -8.0°
Maximum altitude 10:04:04 17° 89° (E) 1,629 ? -7.7°
Drops below altitude 10° 10:07:02 10° 131° (SE) 2,059 ? -7.4°
Sets 10:09:57 0° 151° (SSE) 2,973 ? -7.1°
